Date String (YYYY-MM-DD hh:mm:ss) UTC,Instrument flags,Ambient pressure (hPa),Sample flow (lpm),Bypass flow (lpm),Sample temperature (°C),Ambient temperature (°C),ASC tube jacket temperature (°C),LED temperature (°C),Box temperature (°C),Sample RH (%),Span deviation,Mass concentration (μg/m³),Mass concentration (μg/m³),Mass concentration (μg/m³)
DateTimeUTC,F1_M11,P_M11,Q1_M11,Q2_M11,T1_M11,T2_M11,T3_M11,T4_M11,T5_M11,U1_M11,ZSPAN_M11,X0_M11,X2_M11,X1_M11
2022-01-06 07:00:00,,0826.2,4.99,0.00,21.5,22.3,00.0,30.6,23.2,04.6,0001.4,0009.33,0005.37,0004.61
2022-01-06 07:01:00,,0826.2,5.00,0.00,21.7,22.9,00.0,30.6,23.5,04.6,0000.9,0009.28,0005.36,0004.62
2022-01-06 07:02:00,,0826.0,5.00,0.00,21.7,22.4,00.0,30.6,23.4,04.6,0000.5,0009.32,0005.38,0004.63
2022-01-06 07:03:00,,0826.1,5.00,0.00,21.6,21.6,00.0,30.6,23.1,04.6,0000.2,0009.40,0005.39,0004.62
2022-01-06 07:04:00,,0826.2,5.00,0.00,21.5,20.9,00.0,30.6,22.8,04.6,0000.1,0009.62,0005.46,0004.63
2022-01-06 07:05:00,,0826.2,5.01,0.00,21.3,20.3,00.0,30.5,22.6,04.6,0000.7,0009.64,0005.47,0004.65
2022-01-06 07:06:00,,0826.2,5.00,0.00,21.2,19.8,00.0,30.5,22.4,04.7,0000.9,0009.63,0005.48,0004.66
2022-01-06 07:07:00,,0826.1,5.00,0.00,21.1,20.3,00.0,30.4,22.4,04.7,0000.9,0009.63,0005.49,0004.68
2022-01-06 07:08:00,,0826.1,5.00,0.00,21.3,21.3,00.0,30.5,22.8,04.7,0001.2,0009.62,0005.48,0004.67
2022-01-06 07:09:00,,0826.2,4.99,0.00,21.4,22.2,00.0,30.5,23.1,04.6,0000.9,0009.81,0005.54,0004.68
2022-01-06 07:10:00,,0826.0,5.01,0.00,21.6,22.5,00.0,30.5,23.3,04.6,0001.0,0009.99,0005.58,0004.70
2022-01-06 07:11:00,,0825.9,4.99,0.00,21.5,21.7,00.0,30.5,23.1,04.6,0001.3,0010.06,0005.62,0004.73
2022-01-06 07:12:00,,0825.9,5.00,0.00,21.4,21.2,00.0,30.5,22.8,04.6,0001.7,0010.12,0005.64,0004.75
2022-01-06 07:13:00,,0826.0,5.01,0.00,21.3,20.7,00.0,30.5,22.6,04.6,0001.6,0010.12,0005.65,0004.75
2022-01-06 07:14:00,,0826.1,4.99,0.00,21.2,20.2,00.0,30.4,22.5,04.7,0001.8,0010.16,0005.68,0004.77
2022-01-06 07:15:00,,0826.0,5.01,0.00,21.1,20.5,00.0,30.4,22.5,04.7,0001.7,0010.13,0005.68,0004.78
2022-01-06 07:16:00,,0825.9,4.99,0.00,21.3,21.5,00.0,30.4,22.8,04.6,0001.2,0010.56,0005.69,0004.77
2022-01-06 07:17:00,,0826.0,5.02,0.00,21.4,22.3,00.0,30.5,23.2,04.6,0000.5,0010.64,0005.69,0004.76
2022-01-06 07:18:00,,0826.2,4.99,0.00,21.6,22.5,00.0,30.5,23.3,04.6,0000.5,0010.64,0005.68,0004.75
2022-01-06 07:19:00,,0826.1,4.99,0.00,21.5,21.8,00.0,30.5,23.1,04.6,-000.1,0010.63,0005.68,0004.75
2022-01-06 07:20:00,,0826.0,5.00,0.00,21.4,21.0,00.0,30.4,22.9,04.6,-000.1,0010.41,0005.61,0004.74
2022-01-06 07:21:00,,0825.8,5.00,0.00,21.3,20.4,00.0,30.4,22.6,04.6,0000.0,0010.16,0005.55,0004.72
2022-01-06 07:22:00,,0825.9,5.00,0.00,21.1,19.8,00.0,30.4,22.3,04.7,0000.0,0010.05,0005.49,0004.70
2022-01-06 07:23:00,,0825.8,5.01,0.00,21.0,19.6,00.0,30.3,22.2,04.7,0000.3,0010.02,0005.50,0004.70
2022-01-06 07:24:00,,0825.8,5.00,0.00,21.1,20.7,00.0,30.3,22.5,04.7,0000.8,0010.04,0005.50,0004.69
2022-01-06 07:25:00,,0825.9,5.01,0.00,21.2,21.7,00.0,30.4,22.9,04.6,0000.6,0010.08,0005.48,0004.69
2022-01-06 07:26:00,,0825.9,5.00,0.00,21.4,22.5,00.0,30.4,23.2,04.6,0000.6,0010.01,0005.48,0004.69
2022-01-06 07:27:00,,0825.8,5.00,0.00,21.5,22.1,00.0,30.4,23.2,04.6,0000.7,0009.62,0005.46,0004.69
2022-01-06 07:28:00,,0826.1,5.00,0.00,21.4,21.4,00.0,30.4,23.1,04.6,0000.8,0009.46,0005.47,0004.71
2022-01-06 07:29:00,,0825.7,5.00,0.00,21.3,20.8,00.0,30.4,22.8,04.6,0001.0,0009.42,0005.46,0004.71
2022-01-06 07:30:00,,0825.7,5.00,0.00,21.2,20.3,00.0,30.3,22.6,04.6,0001.4,0009.46,0005.49,0004.71
2022-01-06 07:31:00,,0825.7,5.02,0.00,21.1,19.8,00.0,30.3,22.4,04.7,0001.5,0009.48,0005.48,0004.71
2022-01-06 07:32:00,,0825.7,4.99,0.00,21.0,19.6,00.0,30.3,22.2,04.7,0001.5,0009.47,0005.47,0004.72
2022-01-06 07:33:00,,0825.8,5.00,0.00,21.0,20.6,00.0,30.3,22.5,04.7,0001.5,0009.45,0005.47,0004.73
2022-01-06 07:34:00,,0826.0,5.00,0.00,21.2,21.6,00.0,30.3,22.9,04.6,0001.6,0009.47,0005.48,0004.73
2022-01-06 07:35:00,,0826.0,5.00,0.00,21.4,22.5,00.0,30.4,23.2,04.6,0001.5,0009.54,0005.49,0004.73
2022-01-06 07:36:00,,0825.8,4.99,0.00,21.5,22.3,00.0,30.4,23.3,04.6,0001.6,0009.48,0005.48,0004.74
2022-01-06 07:37:00,,0825.6,5.01,0.00,21.4,21.5,00.0,30.4,23.0,04.6,0001.7,0009.42,0005.46,0004.73
2022-01-06 07:38:00,,0825.6,5.01,0.00,21.3,20.7,00.0,30.3,22.7,04.6,0001.7,0009.40,0005.44,0004.73
2022-01-06 07:39:00,,0825.6,5.00,0.00,21.2,20.1,00.0,30.3,22.4,04.6,0001.9,0009.47,0005.46,0004.75
2022-01-06 07:40:00,,0825.6,5.02,0.00,21.0,19.6,00.0,30.3,22.2,04.7,0001.9,0009.43,0005.44,0004.74
2022-01-06 07:41:00,,0825.6,5.00,0.00,20.9,19.9,00.0,30.2,22.2,04.7,0001.7,0009.47,0005.46,0004.75
2022-01-06 07:42:00,,0825.8,5.00,0.00,21.1,21.0,00.0,30.3,22.6,04.7,0001.3,0009.45,0005.46,0004.77
2022-01-06 07:43:00,,0825.9,5.01,0.00,21.3,22.0,00.0,30.3,23.0,04.6,0000.9,0009.58,0005.52,0004.77
2022-01-06 07:44:00,,0825.9,5.00,0.00,21.4,22.5,00.0,30.3,23.2,04.6,0000.7,0009.64,0005.55,0004.78
2022-01-06 07:45:00,,0825.9,4.98,0.00,21.4,21.8,00.0,30.3,23.1,04.6,0000.7,0009.62,0005.55,0004.78
2022-01-06 07:46:00,,0826.0,5.00,0.00,21.3,21.1,00.0,30.3,22.9,04.6,0000.9,0009.60,0005.55,0004.78
2022-01-06 07:47:00,,0825.7,5.01,0.00,21.2,20.5,00.0,30.3,22.7,04.6,0001.1,0009.70,0005.58,0004.79
2022-01-06 07:48:00,,0825.8,5.00,0.00,21.1,20.0,00.0,30.3,22.4,04.6,0001.4,0009.77,0005.60,0004.79
2022-01-06 07:49:00,,0825.7,4.99,0.00,21.0,19.7,00.0,30.2,22.3,04.7,0001.7,0009.75,0005.60,0004.78
2022-01-06 07:50:00,,0825.7,5.00,0.00,21.0,20.6,00.0,30.2,22.5,04.7,0001.5,0009.67,0005.58,0004.77
2022-01-06 07:51:00,,0826.0,5.01,0.00,21.2,21.7,00.0,30.3,22.9,04.6,0001.7,0009.73,0005.60,0004.79
2022-01-06 07:52:00,,0826.1,5.00,0.00,21.4,22.6,00.0,30.3,23.2,04.6,0001.7,0009.69,0005.59,0004.80
2022-01-06 07:53:00,,0825.8,5.00,0.00,21.5,22.5,00.0,30.4,23.3,04.6,0002.1,0009.80,0005.63,0004.81
2022-01-06 07:54:00,,0825.7,4.99,0.00,21.5,21.8,00.0,30.3,23.1,04.6,0002.2,0009.81,0005.62,0004.82
2022-01-06 07:55:00,,0825.6,5.00,0.00,21.4,21.1,00.0,30.3,22.9,04.6,0002.4,0010.00,0005.66,0004.84
2022-01-06 07:56:00,,0825.6,5.01,0.00,21.3,20.7,00.0,30.3,22.7,04.6,0002.1,0010.41,0005.67,0004.87
2022-01-06 07:57:00,,0825.6,5.00,0.00,21.2,20.2,00.0,30.3,22.5,04.6,0002.2,0010.38,0005.68,0004.89
2022-01-06 07:58:00,,0825.6,5.00,0.00,21.1,19.9,00.0,30.2,22.3,04.7,0001.9,0010.31,0005.67,0004.88
2022-01-06 07:59:00,,0825.5,4.99,0.00,21.1,20.6,00.0,30.2,22.5,04.7,0001.8,0010.14,0005.61,0004.87
